Year,Month,Day,Hour,Minute,Value (Times are PST for temperature in C)
2011,11,01,00,00,3.30
2011,11,01,00,01,3.30
2011,11,01,00,02,3.30
2011,11,01,00,03,3.30
2011,11,01,00,04,3.30
2011,11,01,00,05,3.30
2011,11,01,00,06,3.30
2011,11,01,00,07,3.30
2011,11,01,00,08,3.30
2011,11,01,00,09,3.30
2011,11,01,00,10,3.30
2011,11,01,00,11,3.30
2011,11,01,00,12,3.30
2011,11,01,00,13,3.30
2011,11,01,00,14,3.30
2011,11,01,00,15,3.20
2011,11,01,00,16,3.20
2011,11,01,00,17,3.20
2011,11,01,00,18,3.20
2011,11,01,00,19,3.20
2011,11,01,00,20,3.10
2011,11,01,00,21,3.10
2011,11,01,00,22,3.10
2011,11,01,00,23,3.10
2011,11,01,00,24,3.10
2011,11,01,00,25,3.10
2011,11,01,00,26,3.10
2011,11,01,00,27,3.10
2011,11,01,00,28,3.10
2011,11,01,00,29,3.10
2011,11,01,00,30,3.10
2011,11,01,00,31,3.10
2011,11,01,00,32,3.00
2011,11,01,00,33,2.90
2011,11,01,00,34,2.90
2011,11,01,00,35,2.90
2011,11,01,00,36,2.90
2011,11,01,00,37,2.90
2011,11,01,00,38,2.90
2011,11,01,00,39,2.90
2011,11,01,00,40,2.90
2011,11,01,00,41,2.90
2011,11,01,00,42,2.90
2011,11,01,00,43,2.90
2011,11,01,00,44,2.90
2011,11,01,00,45,2.90
2011,11,01,00,46,2.90
2011,11,01,00,47,2.90
2011,11,01,00,48,2.90
2011,11,01,00,49,2.90
2011,11,01,00,50,2.90
2011,11,01,00,51,2.90
2011,11,01,00,52,2.90
2011,11,01,00,53,3.00
2011,11,01,00,54,3.00
2011,11,01,00,55,2.90
2011,11,01,00,56,2.90
2011,11,01,00,57,2.90
2011,11,01,00,58,2.90
2011,11,01,00,59,2.90
2011,11,01,01,00,2.90
2011,11,01,01,01,2.80
2011,11,01,01,02,2.80
2011,11,01,01,03,2.80
2011,11,01,01,04,2.80
2011,11,01,01,05,2.80
2011,11,01,01,06,2.80
2011,11,01,01,07,2.70
2011,11,01,01,08,2.70
2011,11,01,01,09,2.70
2011,11,01,01,10,2.70
2011,11,01,01,11,2.70
2011,11,01,01,12,2.60
2011,11,01,01,13,2.60
2011,11,01,01,14,2.60
2011,11,01,01,15,2.60
2011,11,01,01,16,2.60
2011,11,01,01,17,2.60
2011,11,01,01,18,2.50
2011,11,01,01,19,2.50
2011,11,01,01,20,2.50
2011,11,01,01,21,2.40
2011,11,01,01,22,2.40
2011,11,01,01,23,2.30
2011,11,01,01,24,2.20
2011,11,01,01,25,2.20
2011,11,01,01,26,2.20
2011,11,01,01,27,2.20
2011,11,01,01,28,2.10
2011,11,01,01,29,2.10
2011,11,01,01,30,2.00
2011,11,01,01,31,2.00
2011,11,01,01,32,2.00
2011,11,01,01,33,2.00
2011,11,01,01,34,1.90
2011,11,01,01,35,1.90
2011,11,01,01,36,1.90
2011,11,01,01,37,1.90
2011,11,01,01,38,1.90
2011,11,01,01,39,1.90
2011,11,01,01,40,1.90
2011,11,01,01,41,1.80
2011,11,01,01,42,1.80
2011,11,01,01,43,1.80
2011,11,01,01,44,1.80
2011,11,01,01,45,1.80
2011,11,01,01,46,1.80
2011,11,01,01,47,1.80
2011,11,01,01,48,1.80
2011,11,01,01,49,1.80
2011,11,01,01,50,1.80
2011,11,01,01,51,1.80
2011,11,01,01,52,1.80
2011,11,01,01,53,1.80
2011,11,01,01,54,1.80
2011,11,01,01,55,1.80
2011,11,01,01,56,1.80
2011,11,01,01,57,1.80
2011,11,01,01,58,1.80
2011,11,01,01,59,1.70
2011,11,01,02,00,1.70
2011,11,01,02,01,1.70
2011,11,01,02,02,1.70
2011,11,01,02,03,1.70
2011,11,01,02,04,1.70
2011,11,01,02,05,1.70
2011,11,01,02,06,1.70
2011,11,01,02,07,1.70
2011,11,01,02,08,1.60
2011,11,01,02,09,1.60
2011,11,01,02,10,1.60
2011,11,01,02,11,1.60
2011,11,01,02,12,1.50
2011,11,01,02,13,1.50
2011,11,01,02,14,1.50
2011,11,01,02,15,1.50
2011,11,01,02,16,1.50
2011,11,01,02,17,1.50
2011,11,01,02,18,1.50
2011,11,01,02,19,1.50
2011,11,01,02,20,1.40
2011,11,01,02,21,1.40
2011,11,01,02,22,1.40
2011,11,01,02,23,1.40
2011,11,01,02,24,1.40
2011,11,01,02,25,1.40
2011,11,01,02,26,1.40
2011,11,01,02,27,1.50
2011,11,01,02,28,1.50
2011,11,01,02,29,1.50
2011,11,01,02,30,1.50
2011,11,01,02,31,1.50
2011,11,01,02,32,1.60
2011,11,01,02,33,1.60
2011,11,01,02,34,1.60
2011,11,01,02,35,1.60
2011,11,01,02,36,1.60
2011,11,01,02,37,1.70
2011,11,01,02,38,1.70
2011,11,01,02,39,1.80
2011,11,01,02,40,1.80
2011,11,01,02,41,1.80
2011,11,01,02,42,1.80
2011,11,01,02,43,1.70
2011,11,01,02,44,1.70
2011,11,01,02,45,1.70
2011,11,01,02,46,1.70
2011,11,01,02,47,1.70
2011,11,01,02,48,1.60
2011,11,01,02,49,1.60
2011,11,01,02,50,1.60
2011,11,01,02,51,1.60
2011,11,01,02,52,1.50
2011,11,01,02,53,1.50
2011,11,01,02,54,1.50
2011,11,01,02,55,1.40
2011,11,01,02,56,1.40
2011,11,01,02,57,1.40
2011,11,01,02,58,1.40
2011,11,01,02,59,1.40
2011,11,01,03,00,1.40
2011,11,01,03,01,1.40
2011,11,01,03,02,1.40
2011,11,01,03,03,1.50
2011,11,01,03,04,1.60
2011,11,01,03,05,1.60
2011,11,01,03,06,1.60
2011,11,01,03,07,1.60
2011,11,01,03,08,1.60
2011,11,01,03,09,1.60
2011,11,01,03,10,1.50
2011,11,01,03,11,1.50
2011,11,01,03,12,1.50
2011,11,01,03,13,1.40
2011,11,01,03,14,1.40
2011,11,01,03,15,1.40
2011,11,01,03,16,1.30
2011,11,01,03,17,1.30
2011,11,01,03,18,1.30
2011,11,01,03,19,1.30
2011,11,01,03,20,1.30
2011,11,01,03,21,1.30
2011,11,01,03,22,1.30
2011,11,01,03,23,1.30
2011,11,01,03,24,1.30
2011,11,01,03,25,1.30
2011,11,01,03,26,1.30
2011,11,01,03,27,1.30
2011,11,01,03,28,1.20
2011,11,01,03,29,1.20
2011,11,01,03,30,1.20
2011,11,01,03,31,1.20
2011,11,01,03,32,1.20
2011,11,01,03,33,1.20
2011,11,01,03,34,1.10
2011,11,01,03,35,1.10
2011,11,01,03,36,1.10
2011,11,01,03,37,1.10
2011,11,01,03,38,1.00
2011,11,01,03,39,1.00
2011,11,01,03,40,1.00
2011,11,01,03,41,1.00
2011,11,01,03,42,0.90
2011,11,01,03,43,0.90
2011,11,01,03,44,0.90
2011,11,01,03,45,0.90
2011,11,01,03,46,0.90
2011,11,01,03,47,0.90
2011,11,01,03,48,0.80
2011,11,01,03,49,0.80
2011,11,01,03,50,0.90
2011,11,01,03,51,0.90
2011,11,01,03,52,0.90
2011,11,01,03,53,0.90
2011,11,01,03,54,0.90
2011,11,01,03,55,0.90
2011,11,01,03,56,0.90
2011,11,01,03,57,0.90
2011,11,01,03,58,0.90
2011,11,01,03,59,1.00
2011,11,01,04,00,1.00
2011,11,01,04,01,1.00
2011,11,01,04,02,1.00
2011,11,01,04,03,1.00
2011,11,01,04,04,1.00
2011,11,01,04,05,1.00
2011,11,01,04,06,1.00
2011,11,01,04,07,1.00
2011,11,01,04,08,0.90
2011,11,01,04,09,0.90
2011,11,01,04,10,0.90
2011,11,01,04,11,0.90
2011,11,01,04,12,0.80
2011,11,01,04,13,0.80
2011,11,01,04,14,0.80
2011,11,01,04,15,0.80
2011,11,01,04,16,0.80
2011,11,01,04,17,0.80
2011,11,01,04,18,0.80
2011,11,01,04,19,0.80
2011,11,01,04,20,0.80
2011,11,01,04,21,0.80
2011,11,01,04,22,0.80
2011,11,01,04,23,0.80
2011,11,01,04,24,0.80
2011,11,01,04,25,0.80
2011,11,01,04,26,0.80
2011,11,01,04,27,0.80
2011,11,01,04,28,0.70
2011,11,01,04,29,0.70
2011,11,01,04,30,0.70
2011,11,01,04,31,0.70
2011,11,01,04,32,0.70
2011,11,01,04,33,0.70
2011,11,01,04,34,0.70
2011,11,01,04,35,0.70
2011,11,01,04,36,0.70
2011,11,01,04,37,0.70
2011,11,01,04,38,0.70
2011,11,01,04,39,0.70
2011,11,01,04,40,0.70
2011,11,01,04,41,0.70
2011,11,01,04,42,0.70
2011,11,01,04,43,0.70
2011,11,01,04,44,0.80
2011,11,01,04,45,0.80
2011,11,01,04,46,0.80
2011,11,01,04,47,0.80
2011,11,01,04,48,0.80
2011,11,01,04,49,0.80
2011,11,01,04,50,0.80
2011,11,01,04,51,0.80
2011,11,01,04,52,0.90
2011,11,01,04,53,0.90
2011,11,01,04,54,0.90
2011,11,01,04,55,0.90
2011,11,01,04,56,0.90
2011,11,01,04,57,0.90
2011,11,01,04,58,0.90
2011,11,01,04,59,0.80
2011,11,01,05,00,0.90
2011,11,01,05,01,0.90
2011,11,01,05,02,0.90
2011,11,01,05,03,0.90
2011,11,01,05,04,0.90
2011,11,01,05,05,1.00
2011,11,01,05,06,0.90
2011,11,01,05,07,0.90
2011,11,01,05,08,0.90
2011,11,01,05,09,0.90
2011,11,01,05,10,0.90
2011,11,01,05,11,0.90
2011,11,01,05,12,0.90
2011,11,01,05,13,0.90
2011,11,01,05,14,0.90
2011,11,01,05,15,0.90
2011,11,01,05,16,0.90
2011,11,01,05,17,0.90
2011,11,01,05,18,1.00
2011,11,01,05,19,1.00
2011,11,01,05,20,1.00
2011,11,01,05,21,1.00
2011,11,01,05,22,1.10
2011,11,01,05,23,1.10
2011,11,01,05,24,1.20
2011,11,01,05,25,1.20
2011,11,01,05,26,1.20
2011,11,01,05,27,1.20
2011,11,01,05,28,1.20
2011,11,01,05,29,1.20
2011,11,01,05,30,1.20
2011,11,01,05,31,1.20
2011,11,01,05,32,1.20
2011,11,01,05,33,1.10
2011,11,01,05,34,1.10
2011,11,01,05,35,1.10
2011,11,01,05,36,1.10
2011,11,01,05,37,1.10
2011,11,01,05,38,1.10
2011,11,01,05,39,1.10
2011,11,01,05,40,1.00
2011,11,01,05,41,1.00
2011,11,01,05,42,1.00
2011,11,01,05,43,1.00
2011,11,01,05,44,1.10
2011,11,01,05,45,1.10
2011,11,01,05,46,1.10
2011,11,01,05,47,1.10
2011,11,01,05,48,1.10
2011,11,01,05,49,1.00
2011,11,01,05,50,1.00
2011,11,01,05,51,0.90
2011,11,01,05,52,0.90
2011,11,01,05,53,0.80
2011,11,01,05,54,0.80
2011,11,01,05,55,0.80
2011,11,01,05,56,0.80
2011,11,01,05,57,0.80
2011,11,01,05,58,0.80
2011,11,01,05,59,0.80
2011,11,01,06,00,0.80
2011,11,01,06,01,0.80
2011,11,01,06,02,0.80
2011,11,01,06,03,0.80
2011,11,01,06,04,0.80
2011,11,01,06,05,0.80
2011,11,01,06,06,0.70
2011,11,01,06,07,0.70
2011,11,01,06,08,0.70
2011,11,01,06,09,0.70
2011,11,01,06,10,0.60
2011,11,01,06,11,0.60
2011,11,01,06,12,0.60
2011,11,01,06,13,0.50
2011,11,01,06,14,0.50
2011,11,01,06,15,0.50
2011,11,01,06,16,0.40
2011,11,01,06,17,0.40
2011,11,01,06,18,0.40
2011,11,01,06,19,0.40
2011,11,01,06,20,0.40
2011,11,01,06,21,0.30
2011,11,01,06,22,0.30
2011,11,01,06,23,0.30
2011,11,01,06,24,0.30
2011,11,01,06,25,0.20
2011,11,01,06,26,0.20
2011,11,01,06,27,0.20
2011,11,01,06,28,0.10
2011,11,01,06,29,0.10
2011,11,01,06,30,0.10
2011,11,01,06,31,0.10
2011,11,01,06,32,0.10
2011,11,01,06,33,0.10
2011,11,01,06,34,0.10
2011,11,01,06,35,0.10
2011,11,01,06,36,0.10
2011,11,01,06,37,0.10
2011,11,01,06,38,0.10
2011,11,01,06,39,0.20
2011,11,01,06,40,0.20
2011,11,01,06,41,0.20
2011,11,01,06,42,0.20
2011,11,01,06,43,0.20
2011,11,01,06,44,0.20
2011,11,01,06,45,0.20
2011,11,01,06,46,0.10
2011,11,01,06,47,0.10
2011,11,01,06,48,0.10
2011,11,01,06,49,0.10
2011,11,01,06,50,0.10
2011,11,01,06,51,0.10
2011,11,01,06,52,0.10
2011,11,01,06,53,0.10
2011,11,01,06,54,0.10
2011,11,01,06,55,0.10
2011,11,01,06,56,0.00
2011,11,01,06,57,-0.10
2011,11,01,06,58,-0.10
2011,11,01,06,59,-0.10
2011,11,01,07,00,-0.10
2011,11,01,07,01,-0.10
2011,11,01,07,02,-0.10
2011,11,01,07,03,-0.10
2011,11,01,07,04,-0.10
2011,11,01,07,05,-0.10
2011,11,01,07,06,-0.10
2011,11,01,07,07,-0.10
2011,11,01,07,08,-0.10
2011,11,01,07,09,-0.10
2011,11,01,07,10,-0.10
2011,11,01,07,11,-0.10
2011,11,01,07,12,-0.10
2011,11,01,07,13,-0.10
2011,11,01,07,14,-0.10
2011,11,01,07,15,-0.10
2011,11,01,07,16,-0.10
2011,11,01,07,17,-0.10
2011,11,01,07,18,-0.10
2011,11,01,07,19,-0.10
2011,11,01,07,20,-0.10
2011,11,01,07,21,-0.10
2011,11,01,07,22,-0.10
2011,11,01,07,23,-0.10
2011,11,01,07,24,-0.10
2011,11,01,07,25,-0.10
2011,11,01,07,26,-0.10
2011,11,01,07,27,-0.10
2011,11,01,07,28,-0.10
2011,11,01,07,29,-0.10
2011,11,01,07,30,-0.10
2011,11,01,07,31,-0.10
2011,11,01,07,32,-0.10
2011,11,01,07,33,-0.10
2011,11,01,07,34,-0.10
2011,11,01,07,35,0.00
2011,11,01,07,36,0.10
2011,11,01,07,37,0.10
2011,11,01,07,38,0.10
2011,11,01,07,39,0.10
2011,11,01,07,40,0.10
2011,11,01,07,41,0.10
2011,11,01,07,42,0.10
2011,11,01,07,43,0.10
2011,11,01,07,44,0.20
2011,11,01,07,45,0.20
2011,11,01,07,46,0.20
2011,11,01,07,47,0.30
2011,11,01,07,48,0.30
2011,11,01,07,49,0.30
2011,11,01,07,50,0.40
2011,11,01,07,51,0.40
2011,11,01,07,52,0.40
2011,11,01,07,53,0.40
2011,11,01,07,54,0.40
2011,11,01,07,55,0.40
2011,11,01,07,56,0.40
2011,11,01,07,57,0.40
2011,11,01,07,58,0.40
2011,11,01,07,59,0.40
2011,11,01,08,00,0.40
2011,11,01,08,01,0.30
2011,11,01,08,02,0.30
2011,11,01,08,03,0.30
2011,11,01,08,04,0.30
2011,11,01,08,05,0.30
2011,11,01,08,06,0.30
2011,11,01,08,07,0.20
2011,11,01,08,08,0.20
2011,11,01,08,09,0.20
2011,11,01,08,10,0.20
2011,11,01,08,11,0.20
2011,11,01,08,12,0.20
2011,11,01,08,13,0.20
2011,11,01,08,14,0.20
2011,11,01,08,15,0.10
2011,11,01,08,16,0.10
2011,11,01,08,17,0.10
2011,11,01,08,18,0.10
2011,11,01,08,19,0.10
2011,11,01,08,20,0.10
2011,11,01,08,21,0.10
2011,11,01,08,22,0.20
2011,11,01,08,23,0.20
2011,11,01,08,24,0.30
2011,11,01,08,25,0.30
2011,11,01,08,26,0.30
2011,11,01,08,27,0.40
2011,11,01,08,28,0.40
2011,11,01,08,29,0.40
2011,11,01,08,30,0.40
2011,11,01,08,31,0.40
2011,11,01,08,32,0.40
2011,11,01,08,33,0.40
2011,11,01,08,34,0.40
2011,11,01,08,35,0.50
2011,11,01,08,36,0.50
2011,11,01,08,37,0.60
2011,11,01,08,38,0.60
2011,11,01,08,39,0.70
2011,11,01,08,40,0.70
2011,11,01,08,41,0.70
2011,11,01,08,42,0.70
2011,11,01,08,43,0.80
2011,11,01,08,44,0.80
2011,11,01,08,45,0.80
2011,11,01,08,46,0.80
2011,11,01,08,47,0.80
2011,11,01,08,48,0.80
2011,11,01,08,49,0.80
2011,11,01,08,50,0.80
2011,11,01,08,51,0.90
2011,11,01,08,52,0.90
2011,11,01,08,53,0.90
2011,11,01,08,54,0.90
2011,11,01,08,55,1.00
2011,11,01,08,56,1.00
2011,11,01,08,57,1.10
2011,11,01,08,58,1.10
2011,11,01,08,59,1.10
2011,11,01,09,00,1.20
2011,11,01,09,01,1.20
2011,11,01,09,02,1.30
2011,11,01,09,03,1.30
2011,11,01,09,04,1.30
2011,11,01,09,05,1.30
2011,11,01,09,06,1.30
2011,11,01,09,07,1.40
2011,11,01,09,08,1.40
2011,11,01,09,09,1.50
2011,11,01,09,10,1.50
2011,11,01,09,11,1.60
2011,11,01,09,12,1.60
2011,11,01,09,13,1.70
2011,11,01,09,14,1.70
2011,11,01,09,15,1.80
2011,11,01,09,16,1.80
2011,11,01,09,17,1.90
2011,11,01,09,18,1.90
2011,11,01,09,19,2.00
2011,11,01,09,20,2.00
2011,11,01,09,21,2.10
2011,11,01,09,22,2.20
2011,11,01,09,23,2.30
2011,11,01,09,24,2.40
2011,11,01,09,25,2.50
2011,11,01,09,26,2.50
2011,11,01,09,27,2.60
2011,11,01,09,28,2.70
2011,11,01,09,29,2.70
2011,11,01,09,30,2.70
2011,11,01,09,31,2.70
2011,11,01,09,32,2.80
2011,11,01,09,33,2.80
2011,11,01,09,34,2.90
2011,11,01,09,35,3.00
2011,11,01,09,36,3.10
2011,11,01,09,37,3.20
2011,11,01,09,38,3.30
2011,11,01,09,39,3.40
2011,11,01,09,40,3.40
2011,11,01,09,41,3.40
2011,11,01,09,42,3.40
2011,11,01,09,43,3.40
2011,11,01,09,44,3.30
2011,11,01,09,45,3.30
2011,11,01,09,46,3.30
2011,11,01,09,47,3.30
2011,11,01,09,48,3.40
2011,11,01,09,49,3.40
2011,11,01,09,50,3.40
2011,11,01,09,51,3.50
2011,11,01,09,52,3.50
2011,11,01,09,53,3.60
2011,11,01,09,54,3.60
2011,11,01,09,55,3.70
2011,11,01,09,56,3.70
2011,11,01,09,57,3.80
2011,11,01,09,58,3.80
2011,11,01,09,59,3.80
2011,11,01,10,00,3.80
2011,11,01,10,01,3.80
2011,11,01,10,02,3.80
2011,11,01,10,03,3.80
2011,11,01,10,04,3.90
2011,11,01,10,05,3.90
2011,11,01,10,06,4.00
2011,11,01,10,07,4.00
2011,11,01,10,08,4.10
2011,11,01,10,09,4.10
2011,11,01,10,10,4.10
2011,11,01,10,11,4.20
2011,11,01,10,12,4.20
2011,11,01,10,13,4.30
2011,11,01,10,14,4.40
2011,11,01,10,15,4.50
2011,11,01,10,16,4.60
2011,11,01,10,17,4.60
2011,11,01,10,18,4.70
2011,11,01,10,19,4.90
2011,11,01,10,20,5.10
2011,11,01,10,21,5.10
2011,11,01,10,22,5.20
2011,11,01,10,23,5.30
2011,11,01,10,24,5.30
2011,11,01,10,25,5.30
2011,11,01,10,26,5.30
2011,11,01,10,27,5.30
2011,11,01,10,28,5.40
2011,11,01,10,29,5.40
2011,11,01,10,30,5.50
2011,11,01,10,31,5.60
2011,11,01,10,32,5.70
2011,11,01,10,33,5.80
2011,11,01,10,34,6.00
2011,11,01,10,35,6.10
2011,11,01,10,36,6.30
2011,11,01,10,37,6.40
2011,11,01,10,38,6.50
2011,11,01,10,39,6.60
2011,11,01,10,40,6.70
2011,11,01,10,41,6.80
2011,11,01,10,42,6.90
2011,11,01,10,43,7.00
2011,11,01,10,44,7.00
2011,11,01,10,45,7.10
2011,11,01,10,46,7.10
2011,11,01,10,47,7.10
2011,11,01,10,48,7.10
2011,11,01,10,49,7.10
2011,11,01,10,50,7.20
2011,11,01,10,51,7.30
2011,11,01,10,52,7.30
2011,11,01,10,53,7.20
2011,11,01,10,54,7.10
2011,11,01,10,55,7.10
2011,11,01,10,56,7.20
2011,11,01,10,57,7.20
2011,11,01,10,58,7.30
2011,11,01,10,59,7.30
2011,11,01,11,00,7.20
2011,11,01,11,01,7.30
2011,11,01,11,02,7.30
2011,11,01,11,03,7.40
2011,11,01,11,04,7.50
2011,11,01,11,05,7.60
2011,11,01,11,06,7.60
2011,11,01,11,07,7.70
2011,11,01,11,08,7.80
2011,11,01,11,09,7.80
2011,11,01,11,10,7.90
2011,11,01,11,11,7.90
2011,11,01,11,12,7.90
2011,11,01,11,13,8.00
2011,11,01,11,14,8.10
2011,11,01,11,15,8.20
2011,11,01,11,16,8.20
2011,11,01,11,17,8.20
2011,11,01,11,18,8.20
2011,11,01,11,19,8.30
2011,11,01,11,20,8.30
2011,11,01,11,21,8.20
2011,11,01,11,22,8.30
2011,11,01,11,23,8.30
2011,11,01,11,24,8.20
2011,11,01,11,25,8.30
2011,11,01,11,26,8.30
2011,11,01,11,27,8.30
2011,11,01,11,28,8.20
2011,11,01,11,29,8.20
2011,11,01,11,30,8.20
2011,11,01,11,31,8.30
2011,11,01,11,32,8.30
2011,11,01,11,33,8.40
2011,11,01,11,34,8.40
2011,11,01,11,35,8.40
2011,11,01,11,36,8.40
2011,11,01,11,37,8.40
2011,11,01,11,38,8.40
2011,11,01,11,39,8.40
2011,11,01,11,40,8.40
2011,11,01,11,41,8.50
2011,11,01,11,42,8.50
2011,11,01,11,43,8.50
2011,11,01,11,44,8.60
2011,11,01,11,45,8.60
2011,11,01,11,46,8.70
2011,11,01,11,47,8.70
2011,11,01,11,48,8.60
2011,11,01,11,49,8.60
2011,11,01,11,50,8.60
2011,11,01,11,51,8.60
2011,11,01,11,52,8.60
2011,11,01,11,53,8.60
2011,11,01,11,54,8.60
2011,11,01,11,55,8.60
2011,11,01,11,56,8.70
2011,11,01,11,57,8.70
2011,11,01,11,58,8.70
2011,11,01,11,59,8.70
2011,11,01,12,00,8.70
2011,11,01,12,01,8.70
2011,11,01,12,02,8.80
2011,11,01,12,03,8.80
2011,11,01,12,04,8.70
2011,11,01,12,05,8.70
2011,11,01,12,06,8.80
2011,11,01,12,07,8.80
2011,11,01,12,08,8.80
2011,11,01,12,09,8.80
2011,11,01,12,10,8.80
2011,11,01,12,11,8.80
2011,11,01,12,12,8.80
2011,11,01,12,13,8.80
2011,11,01,12,14,8.90
2011,11,01,12,15,8.90
2011,11,01,12,16,9.00
2011,11,01,12,17,9.00
2011,11,01,12,18,9.00
2011,11,01,12,19,9.00
2011,11,01,12,20,9.10
2011,11,01,12,21,9.10
2011,11,01,12,22,9.10
2011,11,01,12,23,9.10
2011,11,01,12,24,9.10
2011,11,01,12,25,9.20
2011,11,01,12,26,9.10
2011,11,01,12,27,9.10
2011,11,01,12,28,9.10
2011,11,01,12,29,9.10
2011,11,01,12,30,9.10
2011,11,01,12,31,9.10
2011,11,01,12,32,9.10
2011,11,01,12,33,9.20
2011,11,01,12,34,9.20
2011,11,01,12,35,9.20
2011,11,01,12,36,9.10
2011,11,01,12,37,9.10
2011,11,01,12,38,9.10
2011,11,01,12,39,9.10
2011,11,01,12,40,9.00
2011,11,01,12,41,9.00
2011,11,01,12,42,9.00
2011,11,01,12,43,9.00
2011,11,01,12,44,9.10
2011,11,01,12,45,9.10
2011,11,01,12,46,9.10
2011,11,01,12,47,9.20
2011,11,01,12,48,9.20
2011,11,01,12,49,9.20
2011,11,01,12,50,9.20
2011,11,01,12,51,9.20
2011,11,01,12,52,9.10
2011,11,01,12,53,9.10
2011,11,01,12,54,9.10
2011,11,01,12,55,9.10
2011,11,01,12,56,9.10
2011,11,01,12,57,9.10
2011,11,01,12,58,9.10
2011,11,01,12,59,9.10
2011,11,01,13,00,9.10
2011,11,01,13,01,9.10
2011,11,01,13,02,9.10
2011,11,01,13,03,9.20
2011,11,01,13,04,9.20
2011,11,01,13,05,9.20
2011,11,01,13,06,9.20
2011,11,01,13,07,9.20
2011,11,01,13,08,9.20
2011,11,01,13,09,9.20
2011,11,01,13,10,9.20
2011,11,01,13,11,9.30
2011,11,01,13,12,9.30
2011,11,01,13,13,9.20
2011,11,01,13,14,9.20
2011,11,01,13,15,9.20
2011,11,01,13,16,9.20
2011,11,01,13,17,9.20
2011,11,01,13,18,9.10
2011,11,01,13,19,9.10
2011,11,01,13,20,9.10
2011,11,01,13,21,9.10
2011,11,01,13,22,9.10
2011,11,01,13,23,9.20
2011,11,01,13,24,9.20
2011,11,01,13,25,9.20
2011,11,01,13,26,9.20
2011,11,01,13,27,9.20
2011,11,01,13,28,9.20
2011,11,01,13,29,9.20
2011,11,01,13,30,9.20
2011,11,01,13,31,9.20
2011,11,01,13,32,9.20
2011,11,01,13,33,9.20
2011,11,01,13,34,9.20
2011,11,01,13,35,9.20
2011,11,01,13,36,9.20
2011,11,01,13,37,9.20
2011,11,01,13,38,9.20
2011,11,01,13,39,9.20
2011,11,01,13,40,9.20
2011,11,01,13,41,9.30
2011,11,01,13,42,9.30
2011,11,01,13,43,9.30
2011,11,01,13,44,9.40
2011,11,01,13,45,9.40
2011,11,01,13,46,9.30
2011,11,01,13,47,9.30
2011,11,01,13,48,9.30
2011,11,01,13,49,9.20
2011,11,01,13,50,9.20
2011,11,01,13,51,9.10
2011,11,01,13,52,9.10
2011,11,01,13,53,9.00
2011,11,01,13,54,9.00
2011,11,01,13,55,9.10
2011,11,01,13,56,9.10
2011,11,01,13,57,9.10
2011,11,01,13,58,9.10
2011,11,01,13,59,9.10
2011,11,01,14,00,9.20
2011,11,01,14,01,9.20
2011,11,01,14,02,9.20
2011,11,01,14,03,9.20
2011,11,01,14,04,9.20
2011,11,01,14,05,9.20
2011,11,01,14,06,9.20
2011,11,01,14,07,9.20
2011,11,01,14,08,9.10
2011,11,01,14,09,9.00
2011,11,01,14,10,8.90
2011,11,01,14,11,8.90
2011,11,01,14,12,8.90
2011,11,01,14,13,8.90
2011,11,01,14,14,8.90
2011,11,01,14,15,8.80
2011,11,01,14,16,8.70
2011,11,01,14,17,8.70
2011,11,01,14,18,8.70
2011,11,01,14,19,8.70
2011,11,01,14,20,8.70
2011,11,01,14,21,8.70
2011,11,01,14,22,8.80
2011,11,01,14,23,8.80
2011,11,01,14,24,8.70
2011,11,01,14,25,8.70
2011,11,01,14,26,8.70
2011,11,01,14,27,8.70
2011,11,01,14,28,8.70
2011,11,01,14,29,8.80
2011,11,01,14,30,8.70
2011,11,01,14,31,8.70
2011,11,01,14,32,8.70
2011,11,01,14,33,8.70
2011,11,01,14,34,8.70
2011,11,01,14,35,8.70
2011,11,01,14,36,8.80
2011,11,01,14,37,8.80
2011,11,01,14,38,8.70
2011,11,01,14,39,8.70
2011,11,01,14,40,8.70
2011,11,01,14,41,8.80
2011,11,01,14,42,8.80
2011,11,01,14,43,8.80
2011,11,01,14,44,8.80
2011,11,01,14,45,8.80
2011,11,01,14,46,8.80
2011,11,01,14,47,8.80
2011,11,01,14,48,8.80
2011,11,01,14,49,8.80
2011,11,01,14,50,8.70
2011,11,01,14,51,8.70
2011,11,01,14,52,8.60
2011,11,01,14,53,8.50
2011,11,01,14,54,8.50
2011,11,01,14,55,8.50
2011,11,01,14,56,8.50
2011,11,01,14,57,8.50
2011,11,01,14,58,8.50
2011,11,01,14,59,8.40
2011,11,01,15,00,8.40
2011,11,01,15,01,8.30
2011,11,01,15,02,8.30
2011,11,01,15,03,8.30
2011,11,01,15,04,8.20
2011,11,01,15,05,8.30
2011,11,01,15,06,8.30
2011,11,01,15,07,8.30
2011,11,01,15,08,8.30
2011,11,01,15,09,8.30
2011,11,01,15,10,8.40
2011,11,01,15,11,8.40
2011,11,01,15,12,8.50
2011,11,01,15,13,8.40
2011,11,01,15,14,8.30
2011,11,01,15,15,8.30
2011,11,01,15,16,8.20
2011,11,01,15,17,8.20
2011,11,01,15,18,8.20
2011,11,01,15,19,8.20
2011,11,01,15,20,8.20
2011,11,01,15,21,8.20
2011,11,01,15,22,8.20
2011,11,01,15,23,8.20
2011,11,01,15,24,8.20
2011,11,01,15,25,8.20
2011,11,01,15,26,8.20
2011,11,01,15,27,8.20
2011,11,01,15,28,8.20
2011,11,01,15,29,8.20
2011,11,01,15,30,8.20
2011,11,01,15,31,8.20
2011,11,01,15,32,8.20
2011,11,01,15,33,8.10
2011,11,01,15,34,8.10
2011,11,01,15,35,8.00
2011,11,01,15,36,8.00
2011,11,01,15,37,8.00
2011,11,01,15,38,8.00
2011,11,01,15,39,8.00
2011,11,01,15,40,8.00
2011,11,01,15,41,8.00
2011,11,01,15,42,8.00
2011,11,01,15,43,8.00
2011,11,01,15,44,8.00
2011,11,01,15,45,8.10
2011,11,01,15,46,8.00
2011,11,01,15,47,8.00
2011,11,01,15,48,8.10
2011,11,01,15,49,8.10
2011,11,01,15,50,8.10
2011,11,01,15,51,8.10
2011,11,01,15,52,8.10
2011,11,01,15,53,8.10
2011,11,01,15,54,8.10
2011,11,01,15,55,8.10
2011,11,01,15,56,8.10
2011,11,01,15,57,8.10
2011,11,01,15,58,8.10
2011,11,01,15,59,8.10
2011,11,01,16,00,8.10
2011,11,01,16,01,8.10
2011,11,01,16,02,8.10
2011,11,01,16,03,8.10
2011,11,01,16,04,8.10
2011,11,01,16,05,8.10
2011,11,01,16,06,8.10
2011,11,01,16,07,8.10
2011,11,01,16,08,8.10
2011,11,01,16,09,8.10
2011,11,01,16,10,8.00
2011,11,01,16,11,8.00
2011,11,01,16,12,8.00
2011,11,01,16,13,7.90
2011,11,01,16,14,7.80
2011,11,01,16,15,7.80
2011,11,01,16,16,7.80
2011,11,01,16,17,7.80
2011,11,01,16,18,7.80
2011,11,01,16,19,7.80
2011,11,01,16,20,7.80
2011,11,01,16,21,7.80
2011,11,01,16,22,7.80
2011,11,01,16,23,7.80
2011,11,01,16,24,7.80
2011,11,01,16,25,7.80
2011,11,01,16,26,7.80
2011,11,01,16,27,7.80
2011,11,01,16,28,7.80
2011,11,01,16,29,7.80
2011,11,01,16,30,7.80
2011,11,01,16,31,7.80
2011,11,01,16,32,7.80
2011,11,01,16,33,7.80
2011,11,01,16,34,7.80
2011,11,01,16,35,7.80
2011,11,01,16,36,7.80
2011,11,01,16,37,7.80
2011,11,01,16,38,7.80
2011,11,01,16,39,7.80
2011,11,01,16,40,7.80
2011,11,01,16,41,7.80
2011,11,01,16,42,7.80
2011,11,01,16,43,7.80
2011,11,01,16,44,7.80
2011,11,01,16,45,7.80
2011,11,01,16,46,7.80
2011,11,01,16,47,7.80
2011,11,01,16,48,7.80
2011,11,01,16,49,7.80
2011,11,01,16,50,7.80
2011,11,01,16,51,7.80
2011,11,01,16,52,7.80
2011,11,01,16,53,7.80
2011,11,01,16,54,7.70
2011,11,01,16,55,7.70
2011,11,01,16,56,7.70
2011,11,01,16,57,7.70
2011,11,01,16,58,7.70
2011,11,01,16,59,7.70
2011,11,01,17,00,7.70
2011,11,01,17,01,7.70
2011,11,01,17,02,7.70
2011,11,01,17,03,7.70
2011,11,01,17,04,7.60
2011,11,01,17,05,7.60
2011,11,01,17,06,7.60
2011,11,01,17,07,7.60
2011,11,01,17,08,7.60
2011,11,01,17,09,7.50
2011,11,01,17,10,7.50
2011,11,01,17,11,7.50
2011,11,01,17,12,7.40
2011,11,01,17,13,7.40
2011,11,01,17,14,7.40
2011,11,01,17,15,7.30
2011,11,01,17,16,7.30
2011,11,01,17,17,7.30
2011,11,01,17,18,7.30
2011,11,01,17,19,7.20
2011,11,01,17,20,7.20
2011,11,01,17,21,7.20
2011,11,01,17,22,7.10
2011,11,01,17,23,7.10
2011,11,01,17,24,7.00
2011,11,01,17,25,7.00
2011,11,01,17,26,6.90
2011,11,01,17,27,6.90
2011,11,01,17,28,6.80
2011,11,01,17,29,6.80
2011,11,01,17,30,6.80
2011,11,01,17,31,6.80
2011,11,01,17,32,6.80
2011,11,01,17,33,6.80
2011,11,01,17,34,6.70
2011,11,01,17,35,6.70
2011,11,01,17,36,6.70
2011,11,01,17,37,6.60
2011,11,01,17,38,6.60
2011,11,01,17,39,6.60
2011,11,01,17,40,6.60
2011,11,01,17,41,6.60
2011,11,01,17,42,6.60
2011,11,01,17,43,6.60
2011,11,01,17,44,6.60
2011,11,01,17,45,6.50
2011,11,01,17,46,6.40
2011,11,01,17,47,6.40
2011,11,01,17,48,6.40
2011,11,01,17,49,6.40
2011,11,01,17,50,6.40
2011,11,01,17,51,6.30
2011,11,01,17,52,6.30
2011,11,01,17,53,6.20
2011,11,01,17,54,6.20
2011,11,01,17,55,6.20
2011,11,01,17,56,6.20
2011,11,01,17,57,6.20
2011,11,01,17,58,6.20
2011,11,01,17,59,6.10
2011,11,01,18,00,6.10
2011,11,01,18,01,6.10
2011,11,01,18,02,6.10
2011,11,01,18,03,6.10
2011,11,01,18,04,6.00
2011,11,01,18,05,6.00